owner,sensor,date,latitude,longitude,vertical_datum,mass_concentration_of_oxygen_in_sea_water,qcFlag 
SCCF RECON,ioos:station:SCCF:53:1,2008-10-01T00:00:00Z,26.6493,-81.8810,2.37,4.86,1111122 
SCCF RECON,ioos:station:SCCF:53:1,2008-10-01T01:00:00Z,26.6493,-81.8810,2.34,4.8,1111122 
SCCF RECON,ioos:station:SCCF:53:1,2008-10-01T02:00:00Z,26.6493,-81.8810,2.3,4.68,1111122 
SCCF RECON,ioos:station:SCCF:53:1,2008-10-01T03:00:00Z,26.6493,-81.8810,2.27,4.57,1111122 
SCCF RECON,ioos:station:SCCF:53:1,2008-10-01T04:00:00Z,26.6493,-81.8810,2.31,4.55,1111122 
SCCF RECON,ioos:station:SCCF:53:1,2008-10-01T05:00:00Z,26.6493,-81.8810,2.39,4.6,1111122 
SCCF RECON,ioos:station:SCCF:53:1,2008-10-01T06:00:00Z,26.6493,-81.8810,2.45,4.7,1111122 
SCCF RECON,ioos:station:SCCF:53:1,2008-10-01T07:00:00Z,26.6493,-81.8810,2.51,4.79,1111122 
SCCF RECON,ioos:station:SCCF:53:1,2008-10-01T08:00:00Z,26.6493,-81.8810,2.56,4.8,1111122 
SCCF RECON,ioos:station:SCCF:53:1,2008-10-01T09:00:00Z,26.6493,-81.8810,2.56,4.76,1111122 
SCCF RECON,ioos:station:SCCF:53:1,2008-10-01T10:00:00Z,26.6493,-81.8810,2.513,4.76,1111122 
SCCF RECON,ioos:station:SCCF:53:1,2008-10-01T11:00:00Z,26.6493,-81.8810,2.45,4.58,1111122 
SCCF RECON,ioos:station:SCCF:53:1,2008-10-01T12:00:00Z,26.6493,-81.8810,2.4,4.65,1111122 
SCCF RECON,ioos:station:SCCF:53:1,2008-10-01T13:00:00Z,26.6493,-81.8810,2.35,4.6,1111122 
SCCF RECON,ioos:station:SCCF:53:1,2008-10-01T14:00:00Z,26.6493,-81.8810,2.298,4.37,1111122 
SCCF RECON,ioos:station:SCCF:53:1,2008-10-01T15:00:00Z,26.6493,-81.8810,2.24,4.46,1111122 
SCCF RECON,ioos:station:SCCF:53:1,2008-10-01T16:00:00Z,26.6493,-81.8810,2.198,3.88,1111122 
SCCF RECON,ioos:station:SCCF:53:1,2008-10-01T17:00:00Z,26.6493,-81.8810,2.18,3.98,1111122 
SCCF RECON,ioos:station:SCCF:53:1,2008-10-01T18:00:00Z,26.6493,-81.8810,2.232,4.01,1111122 
SCCF RECON,ioos:station:SCCF:53:1,2008-10-01T19:00:00Z,26.6493,-81.8810,2.291,4.44,1111122 
SCCF RECON,ioos:station:SCCF:53:1,2008-10-01T20:00:00Z,26.6493,-81.8810,2.34,4.44,1111122 
SCCF RECON,ioos:station:SCCF:53:1,2008-10-01T21:00:00Z,26.6493,-81.8810,2.392,4.59,1111122 
SCCF RECON,ioos:station:SCCF:53:1,2008-10-01T22:00:00Z,26.6493,-81.8810,2.422,4.71,1111122 
SCCF RECON,ioos:station:SCCF:53:1,2008-10-01T23:00:00Z,26.6493,-81.8810,2.42,4.81,1111122 
SCCF RECON,ioos:station:SCCF:53:1,2008-10-02T00:00:00Z,26.6493,-81.8810,2.37,4.75,1111122 
SCCF RECON,ioos:station:SCCF:53:1,2008-10-02T01:00:00Z,26.6493,-81.8810,2.33,4.6,1111122 
SCCF RECON,ioos:station:SCCF:53:1,2008-10-02T02:00:00Z,26.6493,-81.8810,2.29,4.22,1111122 
SCCF RECON,ioos:station:SCCF:53:1,2008-10-02T03:00:00Z,26.6493,-81.8810,2.25,4.3,1111122 
SCCF RECON,ioos:station:SCCF:53:1,2008-10-02T04:00:00Z,26.6493,-81.8810,2.25,4.21,1111122 
SCCF RECON,ioos:station:SCCF:53:1,2008-10-02T05:00:00Z,26.6493,-81.8810,2.308,4.29,1111122 
SCCF RECON,ioos:station:SCCF:53:1,2008-10-02T06:00:00Z,26.6493,-81.8810,2.371,4.42,1111122 
SCCF RECON,ioos:station:SCCF:53:1,2008-10-02T07:00:00Z,26.6493,-81.8810,2.44,4.67,1111122 
SCCF RECON,ioos:station:SCCF:53:1,2008-10-02T08:00:00Z,26.6493,-81.8810,2.5,4.79,1111122 
SCCF RECON,ioos:station:SCCF:53:1,2008-10-02T09:00:00Z,26.6493,-81.8810,2.54,4.8,1111122 
SCCF RECON,ioos:station:SCCF:53:1,2008-10-02T10:00:00Z,26.6493,-81.8810,2.53,4.77,1111122 
SCCF RECON,ioos:station:SCCF:53:1,2008-10-02T11:00:00Z,26.6493,-81.8810,2.47,4.7,1111122 
SCCF RECON,ioos:station:SCCF:53:1,2008-10-02T12:00:00Z,26.6493,-81.8810,2.41,4.47,1111122 
SCCF RECON,ioos:station:SCCF:53:1,2008-10-02T13:00:00Z,26.6493,-81.8810,2.36,4.39,1111122 
SCCF RECON,ioos:station:SCCF:53:1,2008-10-02T14:00:00Z,26.6493,-81.8810,2.3,4.06,1111122 
SCCF RECON,ioos:station:SCCF:53:1,2008-10-02T15:00:00Z,26.6493,-81.8810,2.249,4.03,1111122 
SCCF RECON,ioos:station:SCCF:53:1,2008-10-02T16:00:00Z,26.6493,-81.8810,2.191,4.02,1111122 
SCCF RECON,ioos:station:SCCF:53:1,2008-10-02T17:00:00Z,26.6493,-81.8810,2.147,3.85,1111122 
SCCF RECON,ioos:station:SCCF:53:1,2008-10-02T18:00:00Z,26.6493,-81.8810,2.134,3.92,1111122 
SCCF RECON,ioos:station:SCCF:53:1,2008-10-02T19:00:00Z,26.6493,-81.8810,2.19,3.81,1111122 
SCCF RECON,ioos:station:SCCF:53:1,2008-10-02T20:00:00Z,26.6493,-81.8810,2.24,3.82,1111122 
SCCF RECON,ioos:station:SCCF:53:1,2008-10-02T21:00:00Z,26.6493,-81.8810,2.29,4.05,1111122 
SCCF RECON,ioos:station:SCCF:53:1,2008-10-02T22:00:00Z,26.6493,-81.8810,2.34,4.23,1111122 
SCCF RECON,ioos:station:SCCF:53:1,2008-10-02T23:00:00Z,26.6493,-81.8810,2.356,4.25,1111122 
SCCF RECON,ioos:station:SCCF:53:1,2008-10-03T00:00:00Z,26.6493,-81.8810,2.34,4.3,1111122 
SCCF RECON,ioos:station:SCCF:53:1,2008-10-03T01:00:00Z,26.6493,-81.8810,2.31,4.3,1111122 
SCCF RECON,ioos:station:SCCF:53:1,2008-10-03T02:00:00Z,26.6493,-81.8810,2.27,4.19,1111122 
SCCF RECON,ioos:station:SCCF:53:1,2008-10-03T03:00:00Z,26.6493,-81.8810,2.24,4.16,1111122 
SCCF RECON,ioos:station:SCCF:53:1,2008-10-03T04:00:00Z,26.6493,-81.8810,2.24,4.19,1111122 
SCCF RECON,ioos:station:SCCF:53:1,2008-10-03T05:00:00Z,26.6493,-81.8810,2.28,4.23,1111122 
SCCF RECON,ioos:station:SCCF:53:1,2008-10-03T06:00:00Z,26.6493,-81.8810,2.34,4.27,1111122 
SCCF RECON,ioos:station:SCCF:53:1,2008-10-03T07:00:00Z,26.6493,-81.8810,2.401,4.38,1111122 
SCCF RECON,ioos:station:SCCF:53:1,2008-10-03T08:00:00Z,26.6493,-81.8810,2.461,4.48,1111122 
SCCF RECON,ioos:station:SCCF:53:1,2008-10-03T09:00:00Z,26.6493,-81.8810,2.51,4.52,1111122 
SCCF RECON,ioos:station:SCCF:53:1,2008-10-03T10:00:00Z,26.6493,-81.8810,2.52,4.58,1111122 
SCCF RECON,ioos:station:SCCF:53:1,2008-10-03T11:00:00Z,26.6493,-81.8810,2.48,4.57,1111122 
SCCF RECON,ioos:station:SCCF:53:1,2008-10-03T12:00:00Z,26.6493,-81.8810,2.42,4.41,1111122 
SCCF RECON,ioos:station:SCCF:53:1,2008-10-03T13:00:00Z,26.6493,-81.8810,2.37,4.37,1111122 
SCCF RECON,ioos:station:SCCF:53:1,2008-10-03T14:00:00Z,26.6493,-81.8810,2.304,4.34,1111122 
SCCF RECON,ioos:station:SCCF:53:1,2008-10-03T15:00:00Z,26.6493,-81.8810,2.25,4.29,1111122 
SCCF RECON,ioos:station:SCCF:53:1,2008-10-03T16:00:00Z,26.6493,-81.8810,2.19,4.14,1111122 
SCCF RECON,ioos:station:SCCF:53:1,2008-10-03T17:00:00Z,26.6493,-81.8810,2.13,4.21,1111122 
SCCF RECON,ioos:station:SCCF:53:1,2008-10-03T18:00:00Z,26.6493,-81.8810,2.1,4.11,1111122 
SCCF RECON,ioos:station:SCCF:53:1,2008-10-03T19:00:00Z,26.6493,-81.8810,2.11,4.13,1111122 
SCCF RECON,ioos:station:SCCF:53:1,2008-10-03T20:00:00Z,26.6493,-81.8810,2.167,4.15,1111122 
SCCF RECON,ioos:station:SCCF:53:1,2008-10-03T21:00:00Z,26.6493,-81.8810,2.22,4.18,1111122 
SCCF RECON,ioos:station:SCCF:53:1,2008-10-03T22:00:00Z,26.6493,-81.8810,2.272,4.15,1111122 
SCCF RECON,ioos:station:SCCF:53:1,2008-10-03T23:00:00Z,26.6493,-81.8810,2.328,4.12,1111122 
SCCF RECON,ioos:station:SCCF:53:1,2008-10-04T00:00:00Z,26.6493,-81.8810,2.34,3.97,1111122 
SCCF RECON,ioos:station:SCCF:53:1,2008-10-04T01:00:00Z,26.6493,-81.8810,2.32,4.05,1111122 
SCCF RECON,ioos:station:SCCF:53:1,2008-10-04T02:00:00Z,26.6493,-81.8810,2.29,4.14,1111122 
SCCF RECON,ioos:station:SCCF:53:1,2008-10-04T03:00:00Z,26.6493,-81.8810,2.26,4.07,1111122 
SCCF RECON,ioos:station:SCCF:53:1,2008-10-04T04:00:00Z,26.6493,-81.8810,2.25,4.39,1111122 
SCCF RECON,ioos:station:SCCF:53:1,2008-10-04T05:00:00Z,26.6493,-81.8810,2.27,4.37,1111122 
SCCF RECON,ioos:station:SCCF:53:1,2008-10-04T06:00:00Z,26.6493,-81.8810,2.31,4.55,1111122 
SCCF RECON,ioos:station:SCCF:53:1,2008-10-04T07:00:00Z,26.6493,-81.8810,2.37,4.56,1111122 
SCCF RECON,ioos:station:SCCF:53:1,2008-10-04T08:00:00Z,26.6493,-81.8810,2.42,4.54,1111122 
SCCF RECON,ioos:station:SCCF:53:1,2008-10-04T09:00:00Z,26.6493,-81.8810,2.45,4.56,1111122 
SCCF RECON,ioos:station:SCCF:53:1,2008-10-04T10:00:00Z,26.6493,-81.8810,2.45,4.63,1111122 
SCCF RECON,ioos:station:SCCF:53:1,2008-10-04T11:00:00Z,26.6493,-81.8810,2.41,4.67,1111122 
SCCF RECON,ioos:station:SCCF:53:1,2008-10-04T12:00:00Z,26.6493,-81.8810,2.36,4.67,1111122 
SCCF RECON,ioos:station:SCCF:53:1,2008-10-04T13:00:00Z,26.6493,-81.8810,2.305,4.79,1111122 
SCCF RECON,ioos:station:SCCF:53:1,2008-10-04T14:00:00Z,26.6493,-81.8810,2.252,4.94,1111122 
SCCF RECON,ioos:station:SCCF:53:1,2008-10-04T15:00:00Z,26.6493,-81.8810,2.194,4.97,1111122 
SCCF RECON,ioos:station:SCCF:53:1,2008-10-04T16:00:00Z,26.6493,-81.8810,2.146,5.07,1111122 
SCCF RECON,ioos:station:SCCF:53:1,2008-10-04T17:00:00Z,26.6493,-81.8810,2.083,4.98,1111122 
SCCF RECON,ioos:station:SCCF:53:1,2008-10-04T18:00:00Z,26.6493,-81.8810,2.034,4.94,1111122 
SCCF RECON,ioos:station:SCCF:53:1,2008-10-04T19:00:00Z,26.6493,-81.8810,2.0,5.13,1111122 
SCCF RECON,ioos:station:SCCF:53:1,2008-10-04T20:00:00Z,26.6493,-81.8810,2.008,5.19,1111122 
SCCF RECON,ioos:station:SCCF:53:1,2008-10-04T21:00:00Z,26.6493,-81.8810,2.04,5.19,1111122 
SCCF RECON,ioos:station:SCCF:53:1,2008-10-04T22:00:00Z,26.6493,-81.8810,2.091,5.44,1111122 
SCCF RECON,ioos:station:SCCF:53:1,2008-10-04T23:00:00Z,26.6493,-81.8810,2.13,5.51,1111122 
SCCF RECON,ioos:station:SCCF:53:1,2008-10-05T00:00:00Z,26.6493,-81.8810,2.15,5.43,1111122 
SCCF RECON,ioos:station:SCCF:53:1,2008-10-05T01:00:00Z,26.6493,-81.8810,2.16,5.43,1111122 
SCCF RECON,ioos:station:SCCF:53:1,2008-10-05T02:00:00Z,26.6493,-81.8810,2.158,5.47,1111122 
SCCF RECON,ioos:station:SCCF:53:1,2008-10-05T03:00:00Z,26.6493,-81.8810,2.13,5.52,1111122 
SCCF RECON,ioos:station:SCCF:53:1,2008-10-05T04:00:00Z,26.6493,-81.8810,2.14,5.64,1111122 
SCCF RECON,ioos:station:SCCF:53:1,2008-10-05T05:00:00Z,26.6493,-81.8810,2.14,5.67,1111122 
SCCF RECON,ioos:station:SCCF:53:1,2008-10-05T06:00:00Z,26.6493,-81.8810,2.19,5.7,1111122 
SCCF RECON,ioos:station:SCCF:53:1,2008-10-05T07:00:00Z,26.6493,-81.8810,2.251,5.66,1111122 
SCCF RECON,ioos:station:SCCF:53:1,2008-10-05T08:00:00Z,26.6493,-81.8810,2.3,5.59,1111122 
SCCF RECON,ioos:station:SCCF:53:1,2008-10-05T09:00:00Z,26.6493,-81.8810,2.346,5.59,1111122 
SCCF RECON,ioos:station:SCCF:53:1,2008-10-05T10:00:00Z,26.6493,-81.8810,2.392,5.64,1111122 
SCCF RECON,ioos:station:SCCF:53:1,2008-10-05T11:00:00Z,26.6493,-81.8810,2.42,5.64,1111122 
SCCF RECON,ioos:station:SCCF:53:1,2008-10-05T12:00:00Z,26.6493,-81.8810,2.41,5.64,1111122 
SCCF RECON,ioos:station:SCCF:53:1,2008-10-05T13:00:00Z,26.6493,-81.8810,2.37,5.74,1111122 
SCCF RECON,ioos:station:SCCF:53:1,2008-10-05T14:00:00Z,26.6493,-81.8810,2.32,5.75,1111122 
SCCF RECON,ioos:station:SCCF:53:1,2008-10-05T15:00:00Z,26.6493,-81.8810,2.269,5.8,1111122 
SCCF RECON,ioos:station:SCCF:53:1,2008-10-05T16:00:00Z,26.6493,-81.8810,2.21,5.9,1111122 
SCCF RECON,ioos:station:SCCF:53:1,2008-10-05T17:00:00Z,26.6493,-81.8810,2.155,5.93,1111122 
SCCF RECON,ioos:station:SCCF:53:1,2008-10-05T18:00:00Z,26.6493,-81.8810,2.093,6.0,1111122 
SCCF RECON,ioos:station:SCCF:53:1,2008-10-05T19:00:00Z,26.6493,-81.8810,2.043,5.97,1111122 
SCCF RECON,ioos:station:SCCF:53:1,2008-10-05T20:00:00Z,26.6493,-81.8810,2.031,6.08,1111122 
SCCF RECON,ioos:station:SCCF:53:1,2008-10-05T21:00:00Z,26.6493,-81.8810,2.068,6.07,1111122 
SCCF RECON,ioos:station:SCCF:53:1,2008-10-05T22:00:00Z,26.6493,-81.8810,2.088,6.15,1111122 
SCCF RECON,ioos:station:SCCF:53:1,2008-10-05T23:00:00Z,26.6493,-81.8810,2.131,6.08,1111122 
SCCF RECON,ioos:station:SCCF:53:1,2008-10-06T00:00:00Z,26.6493,-81.8810,2.18,6.12,1111122 
SCCF RECON,ioos:station:SCCF:53:1,2008-10-06T01:00:00Z,26.6493,-81.8810,2.22,6.09,1111122 
SCCF RECON,ioos:station:SCCF:53:1,2008-10-06T02:00:00Z,26.6493,-81.8810,2.24,6.1,1111122 
SCCF RECON,ioos:station:SCCF:53:1,2008-10-06T03:00:00Z,26.6493,-81.8810,2.25,6.11,1111122 
SCCF RECON,ioos:station:SCCF:53:1,2008-10-06T04:00:00Z,26.6493,-81.8810,2.25,6.1,1111122 
SCCF RECON,ioos:station:SCCF:53:1,2008-10-06T05:00:00Z,26.6493,-81.8810,2.24,6.13,1111122 
SCCF RECON,ioos:station:SCCF:53:1,2008-10-06T06:00:00Z,26.6493,-81.8810,2.23,6.15,1111122 
SCCF RECON,ioos:station:SCCF:53:1,2008-10-06T07:00:00Z,26.6493,-81.8810,2.24,6.11,1111122 
SCCF RECON,ioos:station:SCCF:53:1,2008-10-06T08:00:00Z,26.6493,-81.8810,2.27,6.25,1111122 
SCCF RECON,ioos:station:SCCF:53:1,2008-10-06T09:00:00Z,26.6493,-81.8810,2.33,6.22,1111122 
SCCF RECON,ioos:station:SCCF:53:1,2008-10-06T10:00:00Z,26.6493,-81.8810,2.39,6.2,1111122 
SCCF RECON,ioos:station:SCCF:53:1,2008-10-06T11:00:00Z,26.6493,-81.8810,2.425,6.18,1111122 
SCCF RECON,ioos:station:SCCF:53:1,2008-10-06T12:00:00Z,26.6493,-81.8810,2.42,6.16,1111122 
SCCF RECON,ioos:station:SCCF:53:1,2008-10-06T13:00:00Z,26.6493,-81.8810,2.37,6.2,1111122 
SCCF RECON,ioos:station:SCCF:53:1,2008-10-06T14:00:00Z,26.6493,-81.8810,2.331,6.19,1111122 
SCCF RECON,ioos:station:SCCF:53:1,2008-10-06T15:00:00Z,26.6493,-81.8810,2.288,6.07,1111122 
SCCF RECON,ioos:station:SCCF:53:1,2008-10-06T16:00:00Z,26.6493,-81.8810,2.235,6.09,1111122 
SCCF RECON,ioos:station:SCCF:53:1,2008-10-06T17:00:00Z,26.6493,-81.8810,2.186,6.14,1111122 
SCCF RECON,ioos:station:SCCF:53:1,2008-10-06T18:00:00Z,26.6493,-81.8810,2.13,6.22,1111122 
SCCF RECON,ioos:station:SCCF:53:1,2008-10-06T19:00:00Z,26.6493,-81.8810,2.08,6.23,1111122 
SCCF RECON,ioos:station:SCCF:53:1,2008-10-06T20:00:00Z,26.6493,-81.8810,2.06,6.2,1111122 
SCCF RECON,ioos:station:SCCF:53:1,2008-10-06T21:00:00Z,26.6493,-81.8810,2.075,6.29,1111122 
SCCF RECON,ioos:station:SCCF:53:1,2008-10-06T22:00:00Z,26.6493,-81.8810,2.07,6.3,1111122 
SCCF RECON,ioos:station:SCCF:53:1,2008-10-06T23:00:00Z,26.6493,-81.8810,2.123,6.32,1111122 
SCCF RECON,ioos:station:SCCF:53:1,2008-10-07T00:00:00Z,26.6493,-81.8810,2.18,6.33,1111122 
SCCF RECON,ioos:station:SCCF:53:1,2008-10-07T01:00:00Z,26.6493,-81.8810,2.23,6.37,1111122 
SCCF RECON,ioos:station:SCCF:53:1,2008-10-07T02:00:00Z,26.6493,-81.8810,2.278,6.33,1111122 
SCCF RECON,ioos:station:SCCF:53:1,2008-10-07T03:00:00Z,26.6493,-81.8810,2.312,6.33,1111122 
SCCF RECON,ioos:station:SCCF:53:1,2008-10-07T04:00:00Z,26.6493,-81.8810,2.33,6.3,1111122 
SCCF RECON,ioos:station:SCCF:53:1,2008-10-07T05:00:00Z,26.6493,-81.8810,2.3,6.29,1111122 
SCCF RECON,ioos:station:SCCF:53:1,2008-10-07T06:00:00Z,26.6493,-81.8810,2.29,6.29,1111122 
SCCF RECON,ioos:station:SCCF:53:1,2008-10-07T07:00:00Z,26.6493,-81.8810,2.28,6.3,1111122 
SCCF RECON,ioos:station:SCCF:53:1,2008-10-07T08:00:00Z,26.6493,-81.8810,2.28,6.26,1111122 
SCCF RECON,ioos:station:SCCF:53:1,2008-10-07T09:00:00Z,26.6493,-81.8810,2.3,6.24,1111122 
SCCF RECON,ioos:station:SCCF:53:1,2008-10-07T10:00:00Z,26.6493,-81.8810,2.35,6.23,1111122 
SCCF RECON,ioos:station:SCCF:53:1,2008-10-07T11:00:00Z,26.6493,-81.8810,2.4,6.42,1111122 
SCCF RECON,ioos:station:SCCF:53:1,2008-10-07T12:00:00Z,26.6493,-81.8810,2.43,5.64,1111122 
SCCF RECON,ioos:station:SCCF:53:1,2008-10-07T13:00:00Z,26.6493,-81.8810,2.418,5.7,1111122 
SCCF RECON,ioos:station:SCCF:53:1,2008-10-07T14:00:00Z,26.6493,-81.8810,2.37,6.22,1111122 
SCCF RECON,ioos:station:SCCF:53:1,2008-10-07T15:00:00Z,26.6493,-81.8810,2.32,6.01,1111122 
SCCF RECON,ioos:station:SCCF:53:1,2008-10-07T16:00:00Z,26.6493,-81.8810,2.269,5.79,1111122 
SCCF RECON,ioos:station:SCCF:53:1,2008-10-07T17:00:00Z,26.6493,-81.8810,2.21,6.05,1111122 
SCCF RECON,ioos:station:SCCF:53:1,2008-10-07T18:00:00Z,26.6493,-81.8810,2.159,6.1,1111122 
SCCF RECON,ioos:station:SCCF:53:1,2008-10-07T19:00:00Z,26.6493,-81.8810,2.106,6.11,1111122 
SCCF RECON,ioos:station:SCCF:53:1,2008-10-07T20:00:00Z,26.6493,-81.8810,2.058,5.85,1111122 
SCCF RECON,ioos:station:SCCF:53:1,2008-10-07T21:00:00Z,26.6493,-81.8810,2.027,5.84,1111122 
SCCF RECON,ioos:station:SCCF:53:1,2008-10-07T22:00:00Z,26.6493,-81.8810,2.018,5.81,1111122 
SCCF RECON,ioos:station:SCCF:53:1,2008-10-07T23:00:00Z,26.6493,-81.8810,2.06,5.76,1111122 
SCCF RECON,ioos:station:SCCF:53:1,2008-10-08T00:00:00Z,26.6493,-81.8810,2.101,5.75,1111122 
SCCF RECON,ioos:station:SCCF:53:1,2008-10-08T01:00:00Z,26.6493,-81.8810,2.15,6.16,1111122 
SCCF RECON,ioos:station:SCCF:53:1,2008-10-08T02:00:00Z,26.6493,-81.8810,2.22,6.02,1111122 
SCCF RECON,ioos:station:SCCF:53:1,2008-10-08T03:00:00Z,26.6493,-81.8810,2.27,6.29,1111122 
SCCF RECON,ioos:station:SCCF:53:1,2008-10-08T04:00:00Z,26.6493,-81.8810,2.3,6.24,1111122 
SCCF RECON,ioos:station:SCCF:53:1,2008-10-08T05:00:00Z,26.6493,-81.8810,2.32,6.0,1111122 
SCCF RECON,ioos:station:SCCF:53:1,2008-10-08T06:00:00Z,26.6493,-81.8810,2.32,5.82,1111122 
SCCF RECON,ioos:station:SCCF:53:1,2008-10-08T07:00:00Z,26.6493,-81.8810,2.31,6.15,1111122 
SCCF RECON,ioos:station:SCCF:53:1,2008-10-08T08:00:00Z,26.6493,-81.8810,2.301,5.9,1111122 
SCCF RECON,ioos:station:SCCF:53:1,2008-10-08T09:00:00Z,26.6493,-81.8810,2.3,5.78,1111122 
SCCF RECON,ioos:station:SCCF:53:1,2008-10-08T10:00:00Z,26.6493,-81.8810,2.33,5.72,1111122 
SCCF RECON,ioos:station:SCCF:53:1,2008-10-08T11:00:00Z,26.6493,-81.8810,2.39,5.62,1111122 
SCCF RECON,ioos:station:SCCF:53:1,2008-10-08T12:00:00Z,26.6493,-81.8810,2.43,5.7,1111122 
SCCF RECON,ioos:station:SCCF:53:1,2008-10-08T13:00:00Z,26.6493,-81.8810,2.47,5.69,1111122 
SCCF RECON,ioos:station:SCCF:53:1,2008-10-08T14:00:00Z,26.6493,-81.8810,2.482,5.62,1111122 
SCCF RECON,ioos:station:SCCF:53:1,2008-10-08T15:00:00Z,26.6493,-81.8810,2.468,5.62,1111122 
SCCF RECON,ioos:station:SCCF:53:1,2008-10-08T16:00:00Z,26.6493,-81.8810,2.426,5.83,1111122 
SCCF RECON,ioos:station:SCCF:53:1,2008-10-08T17:00:00Z,26.6493,-81.8810,2.36,5.99,1111122 
SCCF RECON,ioos:station:SCCF:53:1,2008-10-08T18:00:00Z,26.6493,-81.8810,2.3,5.53,1111122 
SCCF RECON,ioos:station:SCCF:53:1,2008-10-08T19:00:00Z,26.6493,-81.8810,2.25,5.54,1111122 
SCCF RECON,ioos:station:SCCF:53:1,2008-10-08T20:00:00Z,26.6493,-81.8810,2.194,5.62,1111122 
SCCF RECON,ioos:station:SCCF:53:1,2008-10-08T21:00:00Z,26.6493,-81.8810,2.142,5.64,1111122 
SCCF RECON,ioos:station:SCCF:53:1,2008-10-08T22:00:00Z,26.6493,-81.8810,2.11,5.57,1111122 
SCCF RECON,ioos:station:SCCF:53:1,2008-10-08T23:00:00Z,26.6493,-81.8810,2.09,5.43,1111122 
SCCF RECON,ioos:station:SCCF:53:1,2008-10-09T00:00:00Z,26.6493,-81.8810,2.12,5.45,1111122 
SCCF RECON,ioos:station:SCCF:53:1,2008-10-09T01:00:00Z,26.6493,-81.8810,2.16,5.25,1111122 
SCCF RECON,ioos:station:SCCF:53:1,2008-10-09T02:00:00Z,26.6493,-81.8810,2.23,5.36,1111122 
SCCF RECON,ioos:station:SCCF:53:1,2008-10-09T03:00:00Z,26.6493,-81.8810,2.29,5.24,1111122 
SCCF RECON,ioos:station:SCCF:53:1,2008-10-09T04:00:00Z,26.6493,-81.8810,2.35,5.26,1111122 
SCCF RECON,ioos:station:SCCF:53:1,2008-10-09T05:00:00Z,26.6493,-81.8810,2.38,5.28,1111122 
SCCF RECON,ioos:station:SCCF:53:1,2008-10-09T06:00:00Z,26.6493,-81.8810,2.41,5.3,1111122 
SCCF RECON,ioos:station:SCCF:53:1,2008-10-09T07:00:00Z,26.6493,-81.8810,2.41,5.35,1111122 
SCCF RECON,ioos:station:SCCF:53:1,2008-10-09T08:00:00Z,26.6493,-81.8810,2.358,5.05,1111122 
SCCF RECON,ioos:station:SCCF:53:1,2008-10-09T09:00:00Z,26.6493,-81.8810,2.31,5.51,1111122 
SCCF RECON,ioos:station:SCCF:53:1,2008-10-09T10:00:00Z,26.6493,-81.8810,2.28,4.93,1111122 
SCCF RECON,ioos:station:SCCF:53:1,2008-10-09T11:00:00Z,26.6493,-81.8810,2.28,4.83,1111122 
SCCF RECON,ioos:station:SCCF:53:1,2008-10-09T12:00:00Z,26.6493,-81.8810,2.32,4.95,1111122 
SCCF RECON,ioos:station:SCCF:53:1,2008-10-09T13:00:00Z,26.6493,-81.8810,2.39,4.95,1111122 
SCCF RECON,ioos:station:SCCF:53:1,2008-10-09T14:00:00Z,26.6493,-81.8810,2.44,4.98,1111122 
SCCF RECON,ioos:station:SCCF:53:1,2008-10-09T15:00:00Z,26.6493,-81.8810,2.49,5.09,1111122 
SCCF RECON,ioos:station:SCCF:53:1,2008-10-09T16:00:00Z,26.6493,-81.8810,2.51,5.17,1111122 
SCCF RECON,ioos:station:SCCF:53:1,2008-10-09T17:00:00Z,26.6493,-81.8810,2.49,5.2,1111122 
SCCF RECON,ioos:station:SCCF:53:1,2008-10-09T18:00:00Z,26.6493,-81.8810,2.43,5.5,1111122 
SCCF RECON,ioos:station:SCCF:53:1,2008-10-09T19:00:00Z,26.6493,-81.8810,2.361,5.33,1111122 
SCCF RECON,ioos:station:SCCF:53:1,2008-10-09T20:00:00Z,26.6493,-81.8810,2.296,5.3,1111122 
SCCF RECON,ioos:station:SCCF:53:1,2008-10-09T21:00:00Z,26.6493,-81.8810,2.242,5.37,1111122 
SCCF RECON,ioos:station:SCCF:53:1,2008-10-09T22:00:00Z,26.6493,-81.8810,2.189,5.44,1111122 
SCCF RECON,ioos:station:SCCF:53:1,2008-10-09T23:00:00Z,26.6493,-81.8810,2.152,5.41,1111122 
SCCF RECON,ioos:station:SCCF:53:1,2008-10-10T00:00:00Z,26.6493,-81.8810,2.13,4.98,1111122 
SCCF RECON,ioos:station:SCCF:53:1,2008-10-10T01:00:00Z,26.6493,-81.8810,2.16,4.84,1111122 
SCCF RECON,ioos:station:SCCF:53:1,2008-10-10T02:00:00Z,26.6493,-81.8810,2.22,4.77,1111122 
SCCF RECON,ioos:station:SCCF:53:1,2008-10-10T03:00:00Z,26.6493,-81.8810,2.29,5.24,1111122 
SCCF RECON,ioos:station:SCCF:53:1,2008-10-10T04:00:00Z,26.6493,-81.8810,2.34,5.49,1111122 
SCCF RECON,ioos:station:SCCF:53:1,2008-10-10T05:00:00Z,26.6493,-81.8810,2.39,5.57,1111122 
SCCF RECON,ioos:station:SCCF:53:1,2008-10-10T06:00:00Z,26.6493,-81.8810,2.42,5.54,1111122 
SCCF RECON,ioos:station:SCCF:53:1,2008-10-10T07:00:00Z,26.6493,-81.8810,2.41,5.49,1111122 
SCCF RECON,ioos:station:SCCF:53:1,2008-10-10T08:00:00Z,26.6493,-81.8810,2.366,5.53,1111122 
SCCF RECON,ioos:station:SCCF:53:1,2008-10-10T09:00:00Z,26.6493,-81.8810,2.31,5.21,1111122 
SCCF RECON,ioos:station:SCCF:53:1,2008-10-10T10:00:00Z,26.6493,-81.8810,2.27,5.0,1111122 
SCCF RECON,ioos:station:SCCF:53:1,2008-10-10T11:00:00Z,26.6493,-81.8810,2.25,4.95,1111122 
SCCF RECON,ioos:station:SCCF:53:1,2008-10-10T12:00:00Z,26.6493,-81.8810,2.25,4.88,1111122 
SCCF RECON,ioos:station:SCCF:53:1,2008-10-10T13:00:00Z,26.6493,-81.8810,2.309,4.92,1111122 
SCCF RECON,ioos:station:SCCF:53:1,2008-10-10T14:00:00Z,26.6493,-81.8810,2.37,4.95,1111122 
SCCF RECON,ioos:station:SCCF:53:1,2008-10-10T15:00:00Z,26.6493,-81.8810,2.424,5.28,1111122 
SCCF RECON,ioos:station:SCCF:53:1,2008-10-10T16:00:00Z,26.6493,-81.8810,2.465,5.34,1111122 
SCCF RECON,ioos:station:SCCF:53:1,2008-10-10T17:00:00Z,26.6493,-81.8810,2.478,5.59,1111122 
SCCF RECON,ioos:station:SCCF:53:1,2008-10-10T18:00:00Z,26.6493,-81.8810,2.44,5.26,1111122 
SCCF RECON,ioos:station:SCCF:53:1,2008-10-10T19:00:00Z,26.6493,-81.8810,2.371,4.97,1111122 
SCCF RECON,ioos:station:SCCF:53:1,2008-10-10T20:00:00Z,26.6493,-81.8810,2.312,5.01,1111122 
SCCF RECON,ioos:station:SCCF:53:1,2008-10-10T21:00:00Z,26.6493,-81.8810,2.258,4.92,1111122 
SCCF RECON,ioos:station:SCCF:53:1,2008-10-10T22:00:00Z,26.6493,-81.8810,2.201,5.01,1111122 
SCCF RECON,ioos:station:SCCF:53:1,2008-10-10T23:00:00Z,26.6493,-81.8810,2.15,4.92,1111122 
SCCF RECON,ioos:station:SCCF:53:1,2008-10-11T00:00:00Z,26.6493,-81.8810,2.11,4.85,1111122 
SCCF RECON,ioos:station:SCCF:53:1,2008-10-11T01:00:00Z,26.6493,-81.8810,2.115,4.79,1111122 
SCCF RECON,ioos:station:SCCF:53:1,2008-10-11T02:00:00Z,26.6493,-81.8810,2.16,4.79,1111122 
SCCF RECON,ioos:station:SCCF:53:1,2008-10-11T03:00:00Z,26.6493,-81.8810,2.213,4.78,1111122 
SCCF RECON,ioos:station:SCCF:53:1,2008-10-11T04:00:00Z,26.6493,-81.8810,2.27,4.91,1111122 
SCCF RECON,ioos:station:SCCF:53:1,2008-10-11T05:00:00Z,26.6493,-81.8810,2.33,4.96,1111122 
SCCF RECON,ioos:station:SCCF:53:1,2008-10-11T06:00:00Z,26.6493,-81.8810,2.37,5.05,1111122 
SCCF RECON,ioos:station:SCCF:53:1,2008-10-11T07:00:00Z,26.6493,-81.8810,2.36,5.09,1111122 
SCCF RECON,ioos:station:SCCF:53:1,2008-10-11T08:00:00Z,26.6493,-81.8810,2.32,5.04,1111122 
SCCF RECON,ioos:station:SCCF:53:1,2008-10-11T09:00:00Z,26.6493,-81.8810,2.26,4.82,1111122 
SCCF RECON,ioos:station:SCCF:53:1,2008-10-11T10:00:00Z,26.6493,-81.8810,2.21,4.8,1111122 
SCCF RECON,ioos:station:SCCF:53:1,2008-10-11T11:00:00Z,26.6493,-81.8810,2.177,4.86,1111122 
SCCF RECON,ioos:station:SCCF:53:1,2008-10-11T12:00:00Z,26.6493,-81.8810,2.15,4.82,1111122 
SCCF RECON,ioos:station:SCCF:53:1,2008-10-11T13:00:00Z,26.6493,-81.8810,2.17,4.81,1111122 
SCCF RECON,ioos:station:SCCF:53:1,2008-10-11T14:00:00Z,26.6493,-81.8810,2.25,4.85,1111122 
SCCF RECON,ioos:station:SCCF:53:1,2008-10-11T15:00:00Z,26.6493,-81.8810,2.31,4.8,1111122 
SCCF RECON,ioos:station:SCCF:53:1,2008-10-11T16:00:00Z,26.6493,-81.8810,2.37,4.94,1111122 
SCCF RECON,ioos:station:SCCF:53:1,2008-10-11T17:00:00Z,26.6493,-81.8810,2.41,5.02,1111122 
SCCF RECON,ioos:station:SCCF:53:1,2008-10-11T18:00:00Z,26.6493,-81.8810,2.417,5.33,1111122 
SCCF RECON,ioos:station:SCCF:53:1,2008-10-11T19:00:00Z,26.6493,-81.8810,2.379,5.02,1111122 
SCCF RECON,ioos:station:SCCF:53:1,2008-10-11T20:00:00Z,26.6493,-81.8810,2.305,4.84,1111122 
SCCF RECON,ioos:station:SCCF:53:1,2008-10-11T21:00:00Z,26.6493,-81.8810,2.241,4.84,1111122 